www.pogodaiklimat.ru

Погода и климат >> Архив погоды >> Россия >> Краснодарский край >> Горный


ПОГОДА в Горном

  • Прогноз погоды в Горном
  • Монитор погоды в Горном

АРХИВ ПОГОДЫ в Горном

Время (UTC), дата Ветер
(напр.,м/с)
 
Видим.   Явления Облачность Т
(С)
Тd
(С)
f
(%)
Тe
(С)
Тes
(С)
Комфортность P
(гПа)
Po
(гПа)
Тmin
(С)
Tmax
(С)
R
(мм)
R24
(мм)
S
(см)
06 9.01 В 1 2000 м слаб. ливневой снег 10/10 300 м
[Cb cap]
-1.8 -3.4 89 -4 -4 1012.3 972.2 -1.8
09 9.01 штиль 0 20 км {ливн. осадки} 10/5 600 м
[Sc diur, vesp Cs]
-0.7 -3.0 84 -2 0 1015.8 975.7
12 9.01 С 1 50 км {ливн. осадки} 8/3 600 м
[Sc diur, vesp Ac trans Ci fib]
+0.9 -6.0 60 -0 0 1017.8 977.8
15 9.01 штиль 0 50 км 1/0
[Ci fib]
-2.9 -5.0 85 -4 -4 1020.0 979.4 +2.8 7
18 9.01 штиль 0 н/о н/о -4.6 -6.0 90 -6 -6 1021.9 981.0
21 9.01 штиль 0 50 км ясно -5.4 -6.8 90 -6 -6 1022.7 981.6
00 10.01 штиль 0 50 км 6/6 600 м
[Sc]
-5.9 -7.3 90 -7 -7 1023.9 982.7
03 10.01 штиль 0 50 км 3/3 600 м
[Sc diur, vesp]
-4.9 -6.4 89 -6 -6 1022.9 981.9 -6.1 19
06 10.01 штиль 0 50 км 4/1 600 м
[Sc Ci fib]
-4.5 -6.0 89 -6 -5 1023.5 982.4
09 10.01 штиль 0 50 км 8/0
[Ac lent Ci]
+2.8 -5.3 55 +2 +6 1021.0 981.2
12 10.01 штиль 0 50 км 10/8 600 м
[Sc Ac lent]
+6.9 -14.5 20 +7 +7 1019.1 979.8
15 10.01 Ю 4 50 км 10/10 600 м
[Sc]
+6.0 -12.0 26 +3 +3 1019.0 979.6 +7.4
18 10.01 штиль 0 50 км 10/10 600 м
[Sc]
+6.1 -10.3 30 +6 +6 1018.8 979.5
21 10.01 Ю 2 50 км 10/10 600 м
[Sc]
+6.9 -18.6 14 +6 +6 1018.2 979.0
00 11.01 ЮЗ 5-11
{11}
50 км 10/10 600 м
[Sc]
+7.9 -16.1 16 +5 +5 1018.2 979.2
03 11.01 Ю 3
{17}
50 км 10/8 600 м
[Sc Ci fib]
+8.3 -19.4 12 +7 +7 1017.0 978.0 +5.8 14
06 11.01 Ю 3
{10}
50 км 10/5 600 м
[Sc Ci sp]
+8.6 -21.3 10 +7 +7 1017.9 978.9
09 11.01 Ю 4
{12}
50 км 10/3 600 м
[Sc Cs]
+11.6 -11.8 18 +10 +12 1015.7 977.2
12 11.01 Ю 5
{15}
50 км 10/3 600 м
[Sc As trans]
+10.7 -9.9 22 +9 +9 1015.1 976.5
15 11.01 ЮЗ 5-10
{13}
50 км 10/10 600 м
[Sc]
+9.9 -6.4 31 +7 +7 1014.9 976.2 +11.7
18 11.01 Ю 6-12
{12}
50 км 10/4 600 м
[Sc Cs]
+10.4 -6.8 29 +8 +8 1013.6 975.0
21 11.01 Ю 8-16
{16}
50 км 10/10 600 м
[Sc]
+11.0 -6.5 29 +8 +8 1011.9 973.4
00 12.01 Ю 6-13
{16}
10 км слаб. ливневой дождь 10/10 600 м
[Cb cap]
+7.6 +1.9 67 +4 +4 1012.7 973.9
03 12.01 Ю 6-12
{13}
4000 м ливневой дождь 10/10 600 м
[Cb cap]
+6.4 +6.2 99 +2 +2 1012.2 973.2 +6.4 7
06 12.01 ЮЗ 3
{13}
10 км слаб. ливневой дождь 10/10 600 м
[Cb cap]
+4.9 +4.0 94 +1 +1 1014.0 974.8 +4.9
09 12.01 Ю 3
{12}
10 км слаб. ливневой дождь 10/10 600 м
[Cb cap]
+4.3 +3.1 92 +1 +1 1013.9 974.6
12 12.01 Ю 2 10 км слаб. ливневой дождь 10/10 600 м
[Cb cap]
+4.2 +0.7 78 +2 +2 1012.9 973.7
15 12.01 З 2 20 км слаб. ливневой дождь 10/10 600 м
[Cb cap]
+3.6 +2.9 95 +1 +1 1012.7 973.2 +6.5 7
18 12.01 Ю 1 10 км слаб. ливневой дождь 10/10 600 м
[Cb cap]
+3.9 +3.4 97 +2 +2 1010.6 971.4
21 12.01 З 1 10 км слаб. ливневой дождь 10/10 600 м
[Cb cap]
+4.2 +1.5 83 +3 +3 1008.8 969.7
00 13.01 штиль 0 10 км слаб. ливневой дождь 10/10 300 м
[Cb cap]
+2.2 +2.2 100 +1 +1 1008.6 969.1
03 13.01 С 1 4000 м ливневой дождь 10/10 300 м
[Cb cap]
+1.2 +1.2 100 -1 -1 1008.1 968.6 +1.2 18
06 13.01 штиль 0 1000 м ливневой снег [диам. отлож. мокр. снега мм] 10/10 300 м
[Cb cap]
0.0 -0.3 98 -1 -1 1009.3 969.6 -0.0
09 13.01 штиль 0 2000 м слаб. ливневой снег [диам. отлож. мокр. снега мм] 10/10 300 м
[Cb cap]
+0.5 -1.4 87 -1 -1 1009.5 969.9
12 13.01 штиль 0 4000 м слаб. ливневой снег 10/10 300 м
[Cb cap]
+0.5 +0.5 100 -1 -1 1009.5 969.8
15 13.01 ЮЗ 1 500 м туман {ливн. осадки} 10/6 600 м
[Sc diur, vesp Ac cast]
+0.1 -1.9 86 -2 -2 1009.4 969.7 +1.2
18 13.01 штиль 0 4000 м слаб. ливневой снег {туман} 10/10 300 м
[Cb cap]
0.0 -0.3 98 -1 -1 1009.4 969.7
21 13.01 штиль 0 4000 м слаб. ливневой снег 10/10 300 м
[Cb calv]
-0.0 -1.9 87 -1 -1 1009.2 969.4
00 14.01 штиль 0 4000 м слаб. ливневой снег 10/10 300 м
[Cb cap]
0.0 -0.3 98 -1 -1 1008.0 968.3
03 14.01 штиль 0 10 км слаб. ливневой дождь 10/10 300 м
[Cb cap]
0.0 0.0 100 -1 -1 1006.7 967.0 -0.1 3 10
06 14.01 штиль 0 200 м слаб. ливневой дождь {туман} туман 10/10 300 м
[Cb cap]
+0.1 +0.1 100 -1 -1 1006.1 966.5
09 14.01 Ю 2 4000 м ливневой дождь {туман} 10/10 600 м
[Cb cap]
+3.2 +1.6 89 0 0 1004.8 965.7
12 14.01 Ю 1 20 км слаб. ливневой дождь {туман} 10/10 600 м
[Cb cap]
+6.1 +1.0 70 +5 +5 1003.2 964.5
15 14.01 Ю 2
{13}
20 км слаб. ливневой дождь 10/10 600 м
[Cb cap]
+6.6 -1.6 56 +5 +5 1003.0 964.4 +6.7 17
18 14.01 Ю 4
{17}
20 км слаб. ливневой дождь 10/10 600 м
[Cb cap]
+7.2 -0.9 56 +4 +4 1002.5 964.1
21 14.01 Ю 9-16
{16}
20 км слаб. ливневой дождь 10/10 600 м
[Cb cap]
+8.8 -2.6 45 +5 +5 1002.7 964.5
00 15.01 Ю 8-16
{16}
20 км слаб. ливневой дождь 10/10 600 м
[Cb cap]
+8.4 -1.7 49 +4 +4 1003.4 965.1
03 15.01 Ю 5-10
{16}
20 км слаб. ливневой дождь 10/10 600 м
[Cb cap]
+6.4 +1.8 72 +2 +2 1003.9 965.3 +6.4 2
06 15.01 Ю 5
{13}
50 км {ливн. осадки} 10/10 600 м
[Sc diur, vesp]
+8.1 -0.4 55 +5 +5 1004.1 965.7 +6.2
09 15.01 Ю 5
{13}
20 км слаб. ливневой дождь 10/10 600 м
[Cb cap]
+8.4 +0.4 57 +5 +5 1004.1 965.7
12 15.01 ЮВ 1
{14}
50 км {ливн. осадки} 10/9 600 м
[Sc diur, vesp Ci sp]
+10.0 -1.1 46 +10 +10 1001.8 963.7
15 15.01 Ю 5-11
{11}
20 км 10/10 600 м
[Sc]
+12.1 -2.3 37 +10 +10 999.8 961.9 +12.1 0.6
18 15.01 Ю 4
{16}
10 км слаб. ливневой дождь 10/10 600 м
[Cb cap]
+7.6 +4.7 82 +4 +4 999.9 961.3
21 15.01 ЮЗ 3
{17}
10 км слаб. ливневой дождь 10/10 600 м
[Cb cap]
+7.0 +5.5 90 +4 +4 996.6 958.3
00 16.01 Ю 10-17
{17}
20 км {ливн. осадки} 10/10 600 м
[Sc diur, vesp]
+12.3 +1.2 47 +9 +9 995.3 957.7
03 16.01 ЮЗ 8-15
{18}
20 км слаб. ливневой дождь 10/10 600 м
[Cb cap]
+10.6 +4.0 64 +7 +7 995.0 957.3 +6.9 8

 

Местоположение метеостанции Горный (Краснодарский край, Россия): широта 44.28 долгота 39.27 высота над уровнем моря 323 м.

В архиве по умолчанию представлена погода в Горном за последнюю неделю. Архивные данные за месяц целиком и за предыдущие месяцы, начиная с января 2011 года, Вы можете получить, выбрав интересующий диапазон дат из раскрывающегося списка и нажав кнопку "Ввод!".


*Определитесь, кто Вы:
робот инопланетянин человек

Внимание! Время в таблицах - всемирное. Для получения местного времени необходимо прибавить поправку, которая равна 3 ч.

Смотрите также архив погоды в соседних городах и на ближайших метеорологических станциях:

Погода в Туапсе (Краснодарский край, Россия) (26 км)
Погода в Магри (Краснодарский край, Россия) (30 км)
Погода в Горячем Ключе (Краснодарский край, Россия) (41 км)
Погода в Лазаревском (Краснодарский край, Россия) (43 км)
Погода в Джубге (Краснодарский край, Россия) (44 км)
Погода в Кичмае (Краснодарский край, Россия) (54 км)
Погода в Солох Ауле (Краснодарский край, Россия) (61 км)
Погода в Шунтуке (Адыгея, Россия) (71 км)
Погода в Белореченске (Краснодарский край, Россия) (72 км)
Погода в Майкопе (Адыгея, Россия) (75 км)

Пояснения к столбцам:

Ветер - указаны скорость ветра в м/с - средняя за 10 мин, порывы в срок и между сроками (в фигурных скобках) и направление, откуда дует ветер: С - северный, СВ - северо-восточный, В - восточный, ЮВ - юго-восточный, Ю - южный, ЮЗ - юго-западный, З - западный, СЗ - северо-западный.
Видимость - горизонтальная дальность видимости в метрах или километрах. При видимости от 1 до 10 км при отсутствии осадков обычно наблюдается дымка, при ухудшении видимости до 1 км и менее - туман. В сухую погоду видимость может ухудшаться дымом, пылью или мглою.
Явления - указаны атмосферные явления, наблюдавшиеся в срок или в последний час перед сроком; фигурными скобками обозначены явления, наблюдавшиеся между сроками (за 1-3 часа до срока); квадратными скобками обозначены град или гололедные отложения с указанием их диаметра в мм.
Облачность - указаны через наклонную черту общая и нижняя облачность в баллах и высота нижней границы облаков в метрах; квадратными скобками обозначены формы облаков: Ci - перистые, Cs - перисто-слоистые, Cc - перисто-кучевые, Ac - высококучевые, As - высокослоистые, Sc - слоисто-кучевые, Ns - слоисто-дождевые, Cu - кучевые, Cb - кучево-дождевые. Подробнее классификацию облаков см. в Атласе облаков (PDF).
T - Температура воздуха - температура, измеренная на высоте 2 м над землей.
Td - Температура точки росы - температура, при понижении до которой содержащийся в воздухе водяной пар достигнет насыщения.
f - Относительная влажность воздуха - влажноcть воздуха, измеренная на высоте 2 м над землей.
Te - Эффективная температура - температура, которую ощущает одетый по сезону человек в тени. Характеристика душности погоды. При расчете учитывается влияние влажности воздуха и скорости ветра на теплоощущения человека.
Tes - Эффективная температура на солнце - температура, которую ощущает человек, с поправкой на солнечный нагрев. Характеристика знойности погоды. Зависит от высоты солнца над горизонтом, облачности и скорости ветра. Ночью, в пасмурную погоду, а также при ветре 12 м/с и более поправка равна нулю.
P - Атмосферное давление - приведенное к уровню моря атмосферное давление.
Po - Атмосферное давление - измеренное на уровне метеостанции атмосферное давление.
Tmin - Минимальная температура - минимум температуры воздуха на высоте 2 м над землей.
Tmax - Максимальная температура - максимум температуры воздуха на высоте 2 м над землей.
R - Количество осадков - Количество выпавших осадков за период времени, мм. При наведении курсора мыши на число - период времени, за который выпало указанное количество осадков.
R24 - Количество осадков - Количество выпавших осадков за 24 часа, мм.
S - Снежный покров - Высота снежного покрова, см. При наведении курсора мыши на число - состояние снежного покрова и степень покрытия местности в баллах.